レナード彗星

C/2022 U1 ( Leonard )

English version
Home page
Updated on May 13, 2024

---------------------------------------------------------------------

・ プロフィール

発見日 2022年10月20日
発見光度 19.8等
発見者 G. J. Leonard (Mt. Lemmon)

・ 写真集

・ 軌道要素

Epoch 2024 Mar. 31.0 TT = JDT 2460400.5
T 2024 Mar. 25.87036 TT                                 Rudenko
q   4.2020905            (2000.0)            P               Q
z  +0.0001438      Peri.   78.58442     +0.63698667     -0.17770709
 +/-0.0000029      Node    72.52639     -0.30021952     -0.95342710
e   0.9993955      Incl.  128.14963     +0.71001142     -0.24371491
>From 490 observations 2022 Sept. 23-2024 Feb. 17, mean residual 0".6.

・ 光度変化

        m1 = 8.0 + 5 logΔ + 10.0 log r

---------------------------------------------------------------------

軌道要素はM.P.E.C. 2024-D126に掲載されたものです。
光度グラフはComet for Windowsで作成したものです。

---------------------------------------------------------------------

Copyright(C) Seiichi Yoshida (comet@aerith.net). All rights reserved.